• En España
  • Lista de países
  • Para 7 días
  • Temperatura del agua
  • Mapa Satelital
  • El tiempo en el mapa
  • Informadores
  • user-avatar
    Iniciar sesión

    Tiempo cada hora Voskresency

    Hoy, 21 Octubre, Domingo

    Tiempo Temperatura Precipitaciones Viento Presión Humedad
    00:00 -1°C° 0 mm 3 mps 745 mmHg 78%
    01:00 -1°C° 0 mm 3 mps 745 mmHg 78%
    02:00 -1°C° 0 mm 3 mps 745 mmHg 79%
    03:00 -1°C° 0 mm 3 mps 746 mmHg 80%
    04:00 -2°C° 0 mm 3 mps 746 mmHg 81%
    05:00 -2°C° 0 mm 3 mps 747 mmHg 81%
    06:00 -2°C° 0 mm 3 mps 747 mmHg 81%
    07:00 -2°C° 0 mm 3 mps 747 mmHg 81%
    08:00 -2°C° 0 mm 3 mps 748 mmHg 80%
    09:00 -2°C° 0 mm 3 mps 748 mmHg 78%
    10:00 -1°C° 0 mm 3 mps 749 mmHg 77%
    11:00 -1°C° 0 mm 3 mps 749 mmHg 75%
    12:00 -1°C° 0 mm 2 mps 750 mmHg 72%
    13:00 +1°C° 0 mm 2 mps 750 mmHg 69%
    14:00 +1°C° 0 mm 2 mps 750 mmHg 70%
    15:00 +1°C° 0 mm 2 mps 751 mmHg 71%
    16:00 -1°C° 0 mm 2 mps 751 mmHg 72%
    17:00 +1°C° 0 mm 1 mps 751 mmHg 75%
    18:00 0°C° 0 mm 1 mps 752 mmHg 78%
    19:00 0°C° 0 mm 1 mps 752 mmHg 82%
    20:00 -1°C° 0 mm 1 mps 752 mmHg 83%
    21:00 -1°C° 0 mm 1 mps 752 mmHg 84%
    22:00 -2°C° 0 mm 0 mps 753 mmHg 86%
    23:00 -1°C° 0 mm 1 mps 753 mmHg 86%

    Mañana, 22 Octubre, Lunes

    Tiempo Temperatura Precipitaciones Viento Presión Humedad
    00:00 -2°C° 0 mm 1 mps 753 mmHg 86%
    01:00 -2°C° 0 mm 1 mps 753 mmHg 86%
    02:00 -1°C° 0 mm 1 mps 753 mmHg 86%
    03:00 -1°C° 0 mm 1 mps 753 mmHg 86%
    04:00 -1°C° 0 mm 1 mps 753 mmHg 86%
    05:00 -1°C° 0 mm 1 mps 753 mmHg 87%
    06:00 -2°C° 0 mm 2 mps 752 mmHg 88%
    07:00 -2°C° 0 mm 2 mps 752 mmHg 89%
    08:00 -1°C° 0 mm 2 mps 752 mmHg 87%
    09:00 0°C° 0 mm 3 mps 751 mmHg 86%
    10:00 +1°C° 0 mm 3 mps 751 mmHg 84%
    11:00 0°C° 0 mm 4 mps 750 mmHg 80%
    12:00 +1°C° 0 mm 4 mps 750 mmHg 76%
    13:00 +2°C° 0 mm 5 mps 749 mmHg 72%
    14:00 +1°C° 0 mm 5 mps 748 mmHg 72%
    15:00 +1°C° 0 mm 5 mps 747 mmHg 73%
    16:00 +1°C° 0 mm 5 mps 747 mmHg 73%
    17:00 +1°C° 0.1 mm 5 mps 746 mmHg 74%
    18:00 +1°C° 0.1 mm 5 mps 745 mmHg 74%
    19:00 +1°C° 0.1 mm 5 mps 744 mmHg 75%
    20:00 +1°C° 0.4 mm 5 mps 744 mmHg 77%
    21:00 +1°C° 0.4 mm 5 mps 743 mmHg 79%
    22:00 +1°C° 0.4 mm 5 mps 742 mmHg 81%
    23:00 +1°C° 0.5 mm 5 mps 742 mmHg 82%

    Pasado mañana, 23 Octubre, Martes

    Tiempo Temperatura Precipitaciones Viento Presión Humedad
    00:00 +1°C° 0.5 mm 5 mps 741 mmHg 83%
    01:00 +1°C° 0.5 mm 5 mps 741 mmHg 85%
    02:00 +1°C° 0.7 mm 5 mps 741 mmHg 85%
    03:00 +1°C° 0.7 mm 5 mps 740 mmHg 86%
    04:00 +1°C° 0.7 mm 5 mps 740 mmHg 87%
    05:00 +1°C° 0.5 mm 5 mps 740 mmHg 87%
    06:00 +1°C° 0.5 mm 4 mps 740 mmHg 88%
    07:00 +1°C° 0.5 mm 4 mps 740 mmHg 89%
    08:00 +1°C° 0.3 mm 4 mps 740 mmHg 89%
    09:00 +1°C° 0.3 mm 4 mps 740 mmHg 90%
    10:00 +1°C° 0.3 mm 4 mps 740 mmHg 90%
    11:00 +1°C° 0.4 mm 4 mps 740 mmHg 90%
    12:00 +1°C° 0.4 mm 4 mps 740 mmHg 89%
    13:00 +3°C° 0.4 mm 3 mps 740 mmHg 89%
    14:00 +3°C° 0.1 mm 4 mps 740 mmHg 87%
    15:00 +3°C° 0.1 mm 4 mps 740 mmHg 86%
    16:00 +3°C° 0.1 mm 4 mps 740 mmHg 85%
    17:00 +3°C° 0 mm 4 mps 739 mmHg 84%
    18:00 +3°C° 0 mm 4 mps 739 mmHg 84%
    19:00 +3°C° 0 mm 4 mps 739 mmHg 84%
    20:00 +3°C° 0.3 mm 4 mps 739 mmHg 87%
    21:00 +4°C° 0.3 mm 3 mps 738 mmHg 90%
    22:00 +4°C° 0.3 mm 3 mps 738 mmHg 93%
    23:00 +4°C° 0.9 mm 3 mps 738 mmHg 93%

    24 Octubre, Miércoles

    Tiempo Temperatura Precipitaciones Viento Presión Humedad
    00:00 +4°C° 0.9 mm 3 mps 737 mmHg 93%
    01:00 +4°C° 0.9 mm 3 mps 737 mmHg 93%
    02:00 +4°C° 0.6 mm 3 mps 737 mmHg 93%
    03:00 +4°C° 0.6 mm 3 mps 737 mmHg 93%
    04:00 +4°C° 0.6 mm 3 mps 737 mmHg 93%
    05:00 +3°C° 0.7 mm 3 mps 737 mmHg 93%
    06:00 +3°C° 0.7 mm 3 mps 737 mmHg 94%
    07:00 +3°C° 0.7 mm 3 mps 737 mmHg 94%
    08:00 +3°C° 0.6 mm 3 mps 736 mmHg 94%
    09:00 +3°C° 0.6 mm 3 mps 736 mmHg 93%
    10:00 +3°C° 0.6 mm 3 mps 736 mmHg 92%
    11:00 +4°C° 0.9 mm 3 mps 736 mmHg 93%
    12:00 +5°C° 0.9 mm 2 mps 736 mmHg 94%
    13:00 +5°C° 0.9 mm 2 mps 736 mmHg 94%
    14:00 +5°C° 0.6 mm 2 mps 736 mmHg 94%
    15:00 +6°C° 0.6 mm 2 mps 736 mmHg 94%
    16:00 +6°C° 0.6 mm 2 mps 736 mmHg 95%
    17:00 +6°C° 0.1 mm 2 mps 737 mmHg 94%
    18:00 +6°C° 0.1 mm 2 mps 737 mmHg 94%
    19:00 +5°C° 0.1 mm 3 mps 738 mmHg 94%
    20:00 +6°C° 0 mm 2 mps 738 mmHg 95%
    21:00 +5°C° 0 mm 2 mps 739 mmHg 95%
    22:00 +5°C° 0 mm 2 mps 739 mmHg 96%
    23:00 +6°C° 0 mm 1 mps 739 mmHg 96%

    25 Octubre, Jueves

    Tiempo Temperatura Precipitaciones Viento Presión Humedad
    00:00 +5°C° 0 mm 1 mps 740 mmHg 96%
    01:00 +5°C° 0 mm 1 mps 740 mmHg 97%
    02:00 +5°C° 0 mm 1 mps 740 mmHg 97%
    03:00 +5°C° 0 mm 1 mps 740 mmHg 96%
    04:00 +5°C° 0 mm 1 mps 741 mmHg 96%
    05:00 +5°C° 0 mm 1 mps 741 mmHg 96%
    06:00 +4°C° 0 mm 2 mps 741 mmHg 96%
    07:00 +4°C° 0 mm 2 mps 741 mmHg 95%
    08:00 +4°C° 0 mm 2 mps 741 mmHg 94%
    09:00 +4°C° 0 mm 3 mps 741 mmHg 93%
    10:00 +4°C° 0 mm 3 mps 741 mmHg 92%
    11:00 +5°C° 0 mm 3 mps 741 mmHg 91%
    12:00 +5°C° 0 mm 4 mps 741 mmHg 90%
    13:00 +6°C° 0 mm 4 mps 741 mmHg 89%
    14:00 +6°C° 0 mm 4 mps 741 mmHg 88%
    15:00 +6°C° 0 mm 4 mps 740 mmHg 87%
    16:00 +7°C° 0 mm 4 mps 740 mmHg 86%
    17:00 +7°C° 1.2 mm 5 mps 739 mmHg 87%
    18:00 +7°C° 1.2 mm 5 mps 739 mmHg 88%
    19:00 +7°C° 1.2 mm 6 mps 738 mmHg 89%
    20:00 +7°C° 0.9 mm 6 mps 738 mmHg 87%
    21:00 +7°C° 0.9 mm 5 mps 738 mmHg 85%
    22:00 +8°C° 0.9 mm 5 mps 737 mmHg 83%
    23:00 +8°C° 0.1 mm 5 mps 737 mmHg 82%

    26 Octubre, Viernes

    Tiempo Temperatura Precipitaciones Viento Presión Humedad
    00:00 +8°C° 0.1 mm 5 mps 737 mmHg 81%
    01:00 +8°C° 0.1 mm 5 mps 737 mmHg 80%
    02:00 +7°C° 0 mm 5 mps 737 mmHg 78%
    03:00 +7°C° 0 mm 5 mps 736 mmHg 76%
    04:00 +7°C° 0 mm 5 mps 736 mmHg 74%
    05:00 +7°C° 0.1 mm 5 mps 736 mmHg 74%
    06:00 +6°C° 0.1 mm 5 mps 735 mmHg 73%
    07:00 +6°C° 0.1 mm 5 mps 735 mmHg 72%
    08:00 +6°C° 1.1 mm 5 mps 735 mmHg 75%
    09:00 +6°C° 1.1 mm 5 mps 735 mmHg 78%
    10:00 +6°C° 1.1 mm 5 mps 735 mmHg 80%
    11:00 +6°C° 0.1 mm 5 mps 735 mmHg 82%
    12:00 +6°C° 0.1 mm 5 mps 735 mmHg 83%
    13:00 +7°C° 0.1 mm 5 mps 735 mmHg 84%
    14:00 +6°C° 0.5 mm 5 mps 735 mmHg 86%
    15:00 +6°C° 0.5 mm 5 mps 735 mmHg 88%
    16:00 +6°C° 0.5 mm 4 mps 735 mmHg 90%
    17:00 +6°C° 0.6 mm 4 mps 735 mmHg 90%
    18:00 +7°C° 0.6 mm 3 mps 735 mmHg 91%
    19:00 +7°C° 0.6 mm 3 mps 735 mmHg 91%
    20:00 +5°C° 0.5 mm 3 mps 734 mmHg 93%
    21:00 +6°C° 0.5 mm 2 mps 734 mmHg 94%
    22:00 +6°C° 0.5 mm 2 mps 734 mmHg 95%
    23:00 +7°C° 0.4 mm 1 mps 734 mmHg 95%
    Mostrar más